Weather in Cheposh

Russia / Altai Republic     51°35′13″N   85°50′01″E
temp.,
°C
wind,
m/s
gust,
m/s
humid.,
%
clouds,
%
prec.,
mm/h
press.,
hPa
HPBL,
m
23 october, sat
sat2301:00−1ene1191100 2.4 1031210
04:00−3s23955 0.0 103241
07:00−4s23783 0.0 103346
10:00+2s38435 0.0 1031951
13:00+6ssw59305 0.0 10281464
16:00+6ssw5113377 0.0 10271309
19:00+2ssw4846100 0.0 1029375
22:00+1s41048100 0.0 1029445
24 october, sun
sun2401:00+3s41054100 0.3 1028900
04:00+1sse4958100 0.0 1029541
07:00+2sse4858100 0.0 1028432
10:00+3sse3853100 0.0 1028447
13:00+8s3639100 0.0 1026999
16:00+8s3543100 0.0 1026682
19:00+6ssw2254100 0.0 102840
22:00+5s2361100 0.0 102887
25 october, mon
mon2501:00+4s2361100 0.0 102879
04:00+4sse236351 0.0 102678
07:00+1sse237343 0.0 102660
10:00+5sse235773 0.0 1024164
13:00+11se133990 0.0 1021682
16:00+12ese1140100 0.0 1019286
19:00+6s226186 0.0 102213
22:00+4s226978 0.0 102316
26 october, tue
tue2601:00+3s22725 0.0 102216
04:00+2sse227329 0.0 102122
07:00+1sse227498 0.0 101932
10:00+6sse235674 0.0 1016116
13:00+14se253386 0.0 1010555
16:00+16sse38275 0.0 1007853
19:00+9ssw384599 0.0 1010294
22:00+11sw61726100 0.0 10111482
27 october, wed
wed2701:00+10sw71632100 0.0 10141481
04:00+7wnw2344100 0.0 101780
07:00+2n3589100 0.0 1024611
10:000n2393100 0.9 1028398
13:000n2278100 1.3 1028671
16:000nne2274100 0.1 1028611
19:00−1nne1285100 0.1 1030254
22:00−2nne1190100 0.1 1030143